sat.trackr.live / text

‹ back to catalog

EUTELSAT 7 WEST A

NORAD 37816 · 2011-051A

PAYLOAD ACTIVE UNKNOWN

§ Identity

Operator
Country
EUTE
Launch date
2011-09-24
Launch site
SEAL
Launch vehicle
Mass (kg)
RCS (m²)
15.85

Purposes: comms

External: N2YO · Heavens-Above · Gunter

§ Orbital elements

Epoch: 2026-05-25T03:42:32.459904Z

Period
1,436.09 min
Inclination
0.0952°
Eccentricity
0.0004022
Mean motion
1.00272472 rev/d
Perigee alt
35,769.4 km
Apogee alt
35,803.4 km
Semi-major
42,164.5 km
B*
0.0000e+0
RAAN
44.4596°
Arg perigee
19.7866°
Mean anomaly
226.8272°
Rev number
5,364

§ Raw data

EUTELSAT 7 WEST A1 37816U 11051A   26145.15454236 -.00000062  00000+0  00000+0 0  99982 37816   0.0952  44.4596 0004022  19.7866 226.8272  1.00272472 53642

JSON: /api/v1/satellites/37816 · /tle

For live sub-satellite position, see the globe view (requires WebGL).

§ Visibility from observer

Set your observer location to see the next 7 days of passes ≥ 10°. The values pass through the URL so the page stays shareable.

No JS? Fill the form by hand. The geolocation button needs JavaScript.